Regional Weather Roundup
Issued by NWS Pendleton, OR

Home | Current Version | Previous Version | Text Only | Print | Product List | Glossary On
Versions: 1 2 3 4 5 6 7 8 9 10 11 12 13 14 15 16 17 18 19 20 21 22 23 24 25 26 27 28 29 30 31 32 33 34 35 36 37 38 39 40 41 42 43 44 45 46 47 48 49 50
000
ASUS46 KPDT 241025
RWRPDT
PENDLETON REGIONAL WEATHER ROUNDUP
NATIONAL WEATHER SERVICE PENDLETON OREGON
300 AM PDT WED MAY 24 2017

NOTE: FAIR INDICATES FEW OR NO CLOUDS BELOW 12,000 FEET WITH NO
SIGNIFICANT WEATHER AND/OR OBSTRUCTIONS TO VISIBILITY.

# INDICATES UNOFFICIAL STATION AND DATA

WAZ520-241110-
EAST SLOPES OF WASHINGTON CASCADES

CITY            SKY/WX      TMP DP  RH  WIND    PRES   REMARKS
#BULLFROG       N/A         45  29  53  W15     N/A    WCI 38
#CLE ELUM HS    N/A         43  30  60  W8      29.87S
#CLE ELUM LAKE  N/A         38  30  73  W1      29.91R
#EASTON DOT     N/A         41  31  67  N5      N/A
#ELK HTS DOT    N/A         43  43  100 W6      N/A
#GLENWOOD       N/A         46  28  49  W3      29.88R
#NELSON 3SW     N/A         41  30  65  E2      30.05R
#NILE           N/A         46  31  56  W6      29.14R
#TEANAWAY 4NE   N/A         43  32  65  W2      N/A
#TROUT LAKE 1NE N/A         44  29  55  W7      29.92R
#TROUT LAKE 1E  N/A         43  28  55  CALM    30.01R
$$

WAZ521-241110-
SIMCOE HIGHLANDS

CITY            SKY/WX      TMP DP  RH  WIND    PRES   REMARKS
#BICKLETON HS   N/A         48  20  33  W12     29.86R WCI 43
#CENTERVILLE 1SWN/A         45  35  68  W16     29.85R WCI 38
#GOLDENDALE 1NE N/A         48  24  39  SW2     N/A
#GOLDENDALE 4W  N/A         48  11  22  W9      29.98R
#GOODNOE HILLS  N/A         50  38  63  W21     N/A
#LYLE 6NE       N/A         45  37  73  W15G29  29.89R WCI 38
#PITT 4SE       N/A         41  35  79  W18G26  29.88R WCI 32
$$

WAZ026-241110-
KITTITAS VALLEY

CITY            SKY/WX      TMP DP  RH  WIND    PRES   REMARKS
ELLENSBURG AP   CLEAR       48  29  47  NW29G43 29.90R WCI 39
YTC-OPS AREA    CLEAR       40  31  70  NW26G39 29.84R WCI 29
#ELLENSBURG CWU N/A         46  30  53  W14     29.79R WCI 40
#ELLENSBURG 3NE N/A         45  32  60  N13G26  27.98R WCI 39
#ELLENSBURG 1E  N/A         47  N/A N/A W2      N/A
#KITTITAS 4N    N/A         43  30  60  W13     29.92R WCI 36
#KITTITAS 3S    N/A         46  33  60  NW17G35 29.84R WCI 39
#MANASTASH RDG  N/A         42  42  100 NW14G24 N/A    WCI 35
#ROCKY CYN DOT  N/A         45  31  58  W25G37  N/A    WCI 36
#RYEGRASS DOT   N/A         42  30  62  W37G52  N/A    WCI 30
#THORP 6N       N/A         42  31  65  NW33G48 29.80R WCI 31
$$

WAZ027-241110-
YAKIMA VALLEY

CITY            SKY/WX      TMP DP  RH  WIND    PRES   REMARKS
SUNNYSIDE AP    CLEAR       51  32  48  W8      29.90R
YAKIMA AIRPORT  CLEAR       55  32  41  NW12    29.89R
YAKIMA-VAGABOND CLEAR       52  28  39  N16     29.89R
#DONALD 2NE     N/A         52   1  12  W3      28.75R
#GRANDVIEW      N/A         56  28  34  NW1     29.87R
#MABTON         N/A         57  26  30  NW3     29.88R
#MOXEE 2E       N/A         52  N/A N/A N20     29.92R
#NACHES 2SW     N/A         49  33  54  W6      29.90R
#OUTLOOK DOT    N/A         55  30  38  W5      29.85R
#PARKER DOT     N/A         55  30  38  SE12    29.87R
#TERRACE HTS    N/A         52  31  44  NW9     29.81R
#TOPPENISH      N/A         54  33  45  CALM    29.78R
#I82 S UMTANUM RN/A         50  28  42  W14     N/A
#UNION GAP DOT  N/A         54  32  43  NE2     N/A
#WEST VALLEY    N/A         52  31  44  SW1     29.84R
#W YAKIMA       N/A         52  32  46  W3      29.84R
#WHITE SWAN 5E  N/A         51  24  34  CALM    29.87R
#WILEY CITY 3W  N/A         46  21  37  CALM    29.87R
#ZILLAH DOT     N/A         55  30  38  NW12    N/A
$$

WAZ028-241110-
LOWER COLUMBIA BASIN...WASHINGTON

CITY            SKY/WX      TMP DP  RH  WIND    PRES   REMARKS
HANFORD         CLEAR       56  30  37  W18G31  29.85R
PASCO           CLEAR       58  34  40  W12     29.86R
PROSSER AWOS    N/A         55  32  41  W13     29.92R
RICHLAND AWOS   CLEAR       55  35  47  W9      29.88R
#BENTON CITY    N/A         53  29  39  W3      29.75R
#CONNELL 5N     N/A         53  39  59  W7      29.78R
#CONNELL 5NW    N/A         53  39  59  W9      29.74R
#ELTOPIA 6NW    N/A         55  38  53  NW22G40 28.80R
#KAHLOTUS       N/A         54  39  57  N20G32  29.76R
#KENNEWICK 3S   N/A         56  31  38  CALM    29.83R
#PATERSON       N/A         56  43  62  N7      29.85R
#PROSSER DOT    N/A         56  25  30  CALM    29.88R
#SAGEMOOR 2W    N/A         56  35  45  NW14    29.69R
#TOUCHET 2S     N/A         58  45  62  W12     29.83R
#WEST PASCO     N/A         58  36  44  CALM    29.83R
$$

WAZ029-241110-
FOOTHILLS OF THE BLUES...WASHINGTON

CITY            SKY/WX      TMP DP  RH  WIND    PRES   REMARKS
WALLA WALLA AP  CLEAR       59  46  62  SW14    29.87R
#CLYDE 6NW      N/A         56  36  47  NW10G24 29.75R
#DAYTON SCHOOL  N/A         57  42  57  S7      29.86R
#DELANEY DOT    N/A         59  37  44  S6      29.81R
#PLEASANT VIEW 1N/A         54  35  48  SW6     29.79R
#PRESCOTT       N/A         58  39  49  SW5     29.78R
#WHITMAN COLLEGEN/A         57  45  64  W12     29.89R
#WAITSBURG 6SSE N/A         54  44  69  SE6     29.82R
#WALLA WALLA 5E N/A         55  45  69  SW9     N/A
#WHITMAN MISSIONN/A         58  46  64  SW7     29.85R
$$

WAZ030-241110-
BLUE MOUNTAINS...WASHINGTON

CITY            SKY/WX      TMP DP  RH  WIND    PRES   REMARKS
#DIXIE 5SE      N/A         50  43  77  SW15G25 29.81R
$$

ORZ009-041-WAZ024-241110-
COLUMBIA RIVER GORGE

CITY            SKY/WX      TMP DP  RH  WIND    PRES   REMARKS
HOOD RIVER AP   PTCLDY      48  36  63  S5      30.03R
THE DALLES AP   CLEAR       55  36  49  NW29G38 29.95F
#ARLINGTON AIRPON/A         52  37  56  W20     29.89R
#CELILO DOT     N/A         55  36  49  W16     N/A
#LYLE           N/A         53  40  61  W25G37  29.99R
#MARYHILL       N/A         50  36  58  N20G28  29.82R
#MURDOCK        N/A         53  40  61  N20G31  29.95R
#RUFUS DOT      N/A         55  39  55  W25     N/A
#SMITHVILLE     N/A         52  39  61  W25G39  29.90S

$$

ORZ510-241110-
NORTH CENTRAL OREGON

CITY            SKY/WX      TMP DP  RH  WIND    PRES   REMARKS
#ANTELOPE       N/A         49  29  46  W7      29.72R
#CHENOWITH 1W   N/A         51  35  54  NW14    N/A
#COW CYN RST AREN/A         46  19  34  W13     N/A    WCI 40
#DUFUR          N/A         51  24  34  W1      29.88R
#DUFUR 9E       N/A         45  31  58  W15G24  29.92R WCI 38
#GRASS VALLEY 1SN/A         48  25  40  N12G25  29.97S WCI 43
#KENT DOT       N/A         45  29  53  W9      N/A
#MAUPIN SCHOOL  N/A         52  35  52  S1      30.01R
#MORO SCHOOL    N/A         48  35  60  W16     30.02R WCI 42
#SHANIKO 5WSW   N/A         47  21  35  N18     N/A    WCI 40
#SHANIKO 4NW    N/A         45  23  41  W9      29.96S
#TYGH VALLEY 2NEN/A         50  34  54  N6      29.90R
#WAPANITIA AIRPON/A         47  32  56  W10     29.90R
#WASCO DOT      N/A         50  36  58  W14     N/A
#WASCO 5NE      N/A         47  35  63  SW14G25 29.89R WCI 41
$$

ORZ511-241110-
CENTRAL OREGON

CITY            SKY/WX      TMP DP  RH  WIND    PRES   REMARKS
BEND AIRPORT    CLEAR       50  39  66  CALM    29.92R
MADRAS AIRPORT  CLEAR       46  36  68  N10     30.00R
PRINEVILLE AP   CLEAR       54  41  61  MISG    29.97R
REDMOND AIRPORT CLEAR       57  39  51  W13     29.95S
#ASHWOOD SCHOOL N/A         52  27  38  W5      29.96R
#BEND 1SW       N/A         52  42  69  NW1     N/A
#BEND-AWBREY    N/A         53  42  66  NE2     29.78R
#BEND-KIM LN    N/A         54  42  64  N6      29.73R
#CULVER         N/A         48  41  77  E2      29.78R
#CULVER 8W      N/A         50  42  74  CALM    29.96S
#MADRAS 4S      N/A         49  10  20  NE8     N/A
#POWELL BUTTE   N/A         53  43  69  NW10    29.93R
#PRINEVILLE     N/A         48  41  77  CALM    29.89R
#PRINEVILLE 3N  N/A         51  43  74  NW10    29.83R

$$


ORZ509-241110-
EAST SLOPES OF OREGON CASCADES

CITY            SKY/WX      TMP DP  RH  WIND    PRES   REMARKS
SISTERS AWOS    N/A         54  43  66  W12G31  29.95R
#CAMP SHERMAN   N/A         50  39  66  CALM    29.91R
#LA PINE 4SW    N/A         47  39  74  SW1     30.03F
#LA PINE 4NW    N/A         46  40  79  CALM    29.85F
#LAVA BUTTE DOT N/A         50  39  66  SE2     N/A
#SISTERS 3N     N/A         51  38  61  NW6     29.97S
#SUNRIVER       N/A         51  42  71  SE2     29.80S
#TUMALO 3W      N/A         52  41  66  N3      29.66R
#WANOGA BUTTE D N/A         46  29  51  SE1     N/A

$$

ORZ044-241110-
LOWER COLUMBIA BASIN...OREGON

CITY            SKY/WX      TMP DP  RH  WIND    PRES   REMARKS
HERMISTON       CLEAR       57  40  53  W22G30  29.89R
#BOARDMAN SCHOOLN/A         57  40  53  S9      29.90R
#BOARDMAN 8SW   N/A         54  39  57  SW15    29.90R
#ECHO 8SW       N/A         56  37  49  W9      29.91R
#I-84 EX 198 DOTN/A         56  41  57  E21     N/A
#IONE SCHOOL    N/A         56  33  42  SW20G26 29.87R
#UMATILLA       N/A         56  39  53  SW15    29.80R
$$

ORZ507-241110-
NORTHERN FOOTHILLS OF THE BLUES

CITY            SKY/WX      TMP DP  RH  WIND    PRES   REMARKS
PENDLETON AIRPT CLEAR       55  38  53  W21G32  29.89R
#ADAMS 3WNW     N/A         53  42  66  W9      29.83R
#ATHENA         N/A         54  42  64  W7      29.85R
#CAYUSE         N/A         55  40  57  W14G24  29.82R
#HELIX SCHOOL   N/A         53  41  64  N10G24  29.81R
#HELIX 3N       N/A         51  41  68  W21G30  29.87R
#HOLDMAN 5SE    N/A         53  40  61  W15     29.90R
#HOLDMAN 6E     N/A         51  40  66  SW13    29.63R
#M-F FERNDALE   N/A         59  43  55  CALM    29.86R
#M-F GROVE ELEM N/A         58  41  53  W8      29.87R
#PENDLETON DNTN N/A         59  33  37  SW3     29.89R
#PDT AQUATIC CTRN/A         58  34  40  W15G24  29.93R
#PDT SUNRIDGE   N/A         57  35  43  W13G26  29.91R
#PENDLETON 7NW  N/A         55  40  57  W14     27.01S
#PILOT ROCK 1S  N/A         57  35  43  S2      29.91R
#PILOT ROCK     N/A         56  34  43  CALM    29.93R
#TUTUILLA       N/A         55  38  53  W7      29.87R
#UMAPINE 2E     N/A         59  46  62  W8      29.84R
#WESTON SCHOOL  N/A         53  39  59  NW1     29.87R

$$

ORZ508-241110-
SOUTHERN FOOTHILLS OF THE BLUES

CITY            SKY/WX      TMP DP  RH  WIND    PRES   REMARKS
LEXINGTON       CLEAR       54  28  36  W15     29.96R
#AJAX           N/A         50  20  30  S9      30.11R
#CONDON 5W      N/A         46  27  47  W16G28  29.94R WCI 39
#FOSSIL SCHOOL  N/A         54  33  45  NW7     29.91R
#HEPPNER EOC    N/A         53  39  59  W8      29.76S
#HEPPNER 4NE    N/A         49  29  46  NW9     29.81R
#LEXINGTON 2SE  N/A         55  30  38  W15     29.91R
#MIKKALO        N/A         52  30  43  W8      30.06R
#OLEX 4N        N/A         52  36  54  W25G32  29.92R
#RUGGS 5NE      N/A         49  41  74  W10     30.07S
#RUGGS 2SW      N/A         50  39  66  W12     29.82R

$$

ORZ502-503-241110-
BLUE MOUNTAINS

CITY            SKY/WX      TMP DP  RH  WIND    PRES   REMARKS
MEACHAM         CLEAR       51  33  50  VRB7    29.91S
#BATTLE MTN DOT N/A         49  38  66  CALM    N/A
#GRANITE        N/A         44  32  62  N1      29.56F
#GREENHORN 9SW  N/A         50  41  71  CALM    29.93F
#HARDMAN 10S    N/A         46  33  60  W2      29.86S
#LADD CYN SMT   N/A         55  34  45  NW8     N/A
#LADD CREEK ODOTN/A         51  39  63  CALM    N/A
#LONG CREEK HS  N/A         51  43  74  CALM    N/A
#N POWDER DOT   N/A         53  38  57  N12     N/A
#PIKES PEAK     N/A         48  41  77  N21     27.99S WCI 41
#SUMMERVILLE 5NWN/A         54  39  57  N7      29.89R
#TOLLGATE       N/A         41  35  79  SE8     29.77F
#TROY SCHOOL    N/A         64  39  40  SW3     29.58R
#UKIAH          N/A         44  40  86  CALM    29.74R
#WESTON 4E      N/A         47  40  76  SW9     29.73R
$$

ORZ505-241110-
JOHN DAY BASIN

CITY            SKY/WX      TMP DP  RH  WIND    PRES   REMARKS
JOHN DAY        CLEAR       53  41  64  CALM    29.92F
#ANTELOPE 9ESE  N/A         58  28  32  SW13    N/A
#DAYVILLE SCHOOLN/A         56  42  59  CALM    29.89F
#MITCHELL       N/A         52  46  80  CALM    30.11R
#MITCHELL 8NW   N/A         51  40  66  N1      29.81R
#MONUMENT HS    N/A         59  42  53  NE3     29.86S
#MT. VERNON 5SE N/A         52  40  63  S1      29.88F
#SPRAY SCHOOL   N/A         62  N/A N/A CALM    N/A
$$

ORZ506-241110-
OCHOCO AND JOHN DAY HIGHLANDS

CITY            SKY/WX      TMP DP  RH  WIND    PRES   REMARKS
#HORSE RIDGE DO N/A         41  35  79  CALM    N/A
#IZEE 6NW       N/A         45  39  79  CALM    N/A
#PAULINA ODOT   N/A         54  38  55  W8      N/A
#PINE MTN OBS   N/A         47  30  51  W5      N/A
#PRAIRIE CITY   N/A         52  45  77  CALM    30.06S
#SENECA         N/A         50  N/A N/A CALM    N/A
#SENECA 9NW     N/A         44  40  86  CALM    29.72F
$$

ORZ049-241110-
GRANDE RONDE VALLEY

CITY            SKY/WX      TMP DP  RH  WIND    PRES   REMARKS
LA GRANDE       CLEAR       55  36  49  N8      29.86S
#COVE           N/A         52  43  71  CALM    29.90F
#COVE SCHOOL    N/A         53  41  64  CALM    29.90F
#COVE 6NW       N/A         52  40  63  CALM    29.75F
#ELGIN 3N       N/A         56  36  47  W1      29.86R
#ELGIN 1E       N/A         60  35  39  W9      N/A
#IMBLER SCHOOL  N/A         59  31  34  N3      29.84S
#ISLAND CITY 4N N/A         46  40  79  CALM    30.12F
#LA GRANDE-LEFFEN/A         58  34  40  W10     29.87S
#UNION 1S       N/A         50  40  68  CALM    29.74F
$$

ORZ050-241110-
WALLOWA COUNTY

CITY            SKY/WX      TMP DP  RH  WIND    PRES   REMARKS
JOSEPH AIRPORT  PTCLDY      50  34  54  CALM    29.86F
#ENTERPRISE HS  N/A         58  37  45  N5      29.56F
#IMNAHA SCHOOL  N/A         68  38  33  NE1     29.79F
#JOSEPH         N/A         53  36  52  S2      29.85F
#JOSEPH 3N      N/A         46  32  58  CALM    29.89F
#JOSEPH 3W      N/A         50  38  63  W2      29.73F
#LOSTINE        N/A         59  34  39  SE3     29.51F
#LOSTINE 3SE    N/A         59  34  39  SW1     29.87F
#MT HOWARD 8000 N/A         43  21  41  W7G24   29.96F
#PROMISE 1S     N/A         54  37  52  W15     29.78R
#WALLOWA LAKE   N/A         48  39  71  CALM    29.87F
#WALLOWA SCHOOL N/A         60  36  41  W1      29.81F



$$



USA.gov is the U.S. government's official web portal to all federal, state and local government web resources and services.